Powrót do katalogu

STARLINK-11641

AktywnyŁącznośćVLEO
NORAD 63268·PAYLOAD·🇺🇸 United States

Wystrzelony Mar 15, 2025 z Cape Canaveral Space Force Station

Loading…

Następne Przeloty (najbliższe 24 godziny)

TLE

ŚwieżeSource: CelesTrak SupGP

Epoka: Sep 15, 2026, 03:14 UTC

1 63268C 25053D   26258.13520833 -.00099038  00000+0 -76890-3 0  2589
2 63268  43.0013  49.9728 0001773 271.0825 251.0548 15.70897168    18

Śledź STARLINK-11641 w czasie rzeczywistym z AllMySat

Download on the App Store